Location: Newark
(25.4297°S, 49.2719°W)
Time: 21:05:20
(UTC+00:00)

Envisat - Visible Passes

Search period start: 12 June 2021 00:00
Search period end: 22 June 2021 00:00
Orbit: 764 x 766 km, 98.1° (Epoch: 12 June)

Date Brightness Start Highest point End Pass type
(mag) Time Alt. Az. Time Alt. Az. Time Alt. Az.
12 Jun 3.5 07:45:06 10° NNE 07:50:03 56° ESE 07:51:35 40° SSE visible
12 Jun 4.9 09:28:09 10° WNW 09:29:15 11° W 09:30:22 10° W visible
12 Jun 5.6 21:42:55 10° SSW 21:46:05 17° WSW 21:49:14 10° WNW visible
13 Jun 5.1 07:09:36 10° ENE 07:13:28 22° ESE 07:14:15 21° ESE visible
13 Jun 3.9 08:47:52 10° NNW 08:52:14 29° W 08:54:26 21° WSW visible
13 Jun 4.4 21:04:45 10° S 21:09:33 41° WSW 21:14:18 10° NW visible
14 Jun 2.8 08:10:17 10° N 08:15:22 76° WNW 08:17:06 42° SSW visible
15 Jun 4.1 07:33:53 10° NE 07:38:39 42° ESE 07:39:46 36° SE visible
15 Jun 4.6 09:14:55 10° NW 09:17:43 15° W 09:19:57 12° WSW visible
15 Jun 5.4 21:30:51 10° SSW 21:34:44 22° WSW 21:38:33 10° WNW visible
16 Jun 5.4 06:58:55 10° ENE 07:02:07 17° ESE 07:02:26 17° ESE visible
16 Jun 3.5 08:36:02 10° NNW 08:40:44 38° W 08:42:38 28° SW visible
16 Jun 3.8 20:53:07 10° S 20:58:08 55° WSW 21:03:05 10° NNW visible
17 Jun 3.0 07:58:50 10° NNE 08:03:54 82° ESE 08:05:18 49° S visible
17 Jun 5.9 21:58:16 10° SW 21:59:48 11° WSW 22:01:19 10° W visible
18 Jun 4.5 07:22:47 10° NE 07:27:15 32° ESE 07:27:58 30° ESE visible
18 Jun 4.3 09:02:32 10° NW 09:06:11 20° W 09:08:10 16° WSW visible
18 Jun 5.0 21:18:59 10° SSW 21:23:20 29° WSW 21:27:40 10° NW visible
19 Jun 5.8 06:48:37 10° E 06:50:39 13° ESE 06:50:39 13° ESE visible
19 Jun 3.1 08:24:20 10° N 08:29:15 51° W 08:30:50 37° SW visible
20 Jun 3.4 07:47:28 10° NNE 07:52:28 61° ESE 07:53:30 50° SSE visible
20 Jun 5.7 21:45:36 10° SW 21:48:28 15° WSW 21:51:19 10° WNW visible
21 Jun 4.9 07:11:50 10° NE 07:15:52 24° ESE 07:16:12 24° ESE visible
21 Jun 4.0 08:50:27 10° NNW 08:54:40 26° W 08:56:23 22° WSW visible
21 Jun 4.5 21:07:14 10° S 21:11:57 38° WSW 21:16:36 10° NW visible
